When you browse on this site, cookies collect data to enhance your experience and personalize the content and advertising you see.
Visit our Privacy Policy to learn more. By continuing to use the site, you agree to this use of cookies and data.
  • In Hungary
  • List of Countries
  • For 7 days
  • Water Temperature
  • Weather Map
  • News
  • Weather Widgets
  • user-avatar
    Login

    Hourly Weather Bakhmut (Artemivsk)

    Today, 18 November, Monday

    Time Temperature Precipitation Wind Pressure Humidity
    00:00 +3°C° 0 mm 3 mps 761 mmHg 85%
    01:00 +3°C° 0 mm 3 mps 761 mmHg 86%
    02:00 +3°C° 0 mm 3 mps 760 mmHg 87%
    03:00 +3°C° 0 mm 3 mps 760 mmHg 89%
    04:00 +2°C° 0 mm 3 mps 760 mmHg 90%
    05:00 +2°C° 0 mm 3 mps 760 mmHg 91%
    06:00 +2°C° 0 mm 3 mps 760 mmHg 92%
    07:00 +2°C° 0 mm 3 mps 760 mmHg 91%
    08:00 +1°C° 0 mm 4 mps 760 mmHg 89%
    09:00 +1°C° 0 mm 4 mps 760 mmHg 88%
    10:00 +4°C° 0 mm 4 mps 760 mmHg 81%
    11:00 +5°C° 0 mm 4 mps 760 mmHg 74%
    12:00 +7°C° 0 mm 4 mps 759 mmHg 66%
    13:00 +8°C° 0 mm 4 mps 759 mmHg 63%
    14:00 +9°C° 0 mm 3 mps 759 mmHg 59%
    15:00 +10°C° 0 mm 3 mps 759 mmHg 56%
    16:00 +9°C° 0 mm 3 mps 759 mmHg 61%
    17:00 +7°C° 0 mm 2 mps 759 mmHg 66%
    18:00 +6°C° 0 mm 2 mps 759 mmHg 72%
    19:00 +6°C° 0 mm 2 mps 759 mmHg 75%
    20:00 +5°C° 0 mm 2 mps 759 mmHg 78%
    21:00 +5°C° 0 mm 2 mps 759 mmHg 82%
    22:00 +5°C° 0 mm 2 mps 759 mmHg 84%
    23:00 +4°C° 0 mm 2 mps 759 mmHg 85%

    Tomorrow, 19 November, Tuesday

    Time Temperature Precipitation Wind Pressure Humidity
    00:00 +4°C° 0 mm 2 mps 759 mmHg 87%
    01:00 +4°C° 0 mm 2 mps 759 mmHg 87%
    02:00 +4°C° 0 mm 2 mps 759 mmHg 88%
    03:00 +5°C° 0 mm 1 mps 759 mmHg 88%
    04:00 +4°C° 0 mm 1 mps 759 mmHg 88%
    05:00 +4°C° 0 mm 1 mps 759 mmHg 88%
    06:00 +3°C° 0 mm 2 mps 759 mmHg 89%
    07:00 +3°C° 0 mm 2 mps 759 mmHg 88%
    08:00 +3°C° 0 mm 2 mps 760 mmHg 87%
    09:00 +4°C° 0 mm 2 mps 760 mmHg 86%
    10:00 +5°C° 0 mm 2 mps 760 mmHg 78%
    11:00 +7°C° 0 mm 2 mps 760 mmHg 71%
    12:00 +9°C° 0 mm 2 mps 759 mmHg 63%
    13:00 +9°C° 0 mm 2 mps 759 mmHg 60%
    14:00 +10°C° 0 mm 2 mps 759 mmHg 57%
    15:00 +10°C° 0 mm 2 mps 759 mmHg 54%
    16:00 +9°C° 0 mm 2 mps 759 mmHg 60%
    17:00 +8°C° 0 mm 2 mps 759 mmHg 66%
    18:00 +6°C° 0 mm 2 mps 759 mmHg 72%
    19:00 +6°C° 0 mm 2 mps 759 mmHg 75%
    20:00 +5°C° 0 mm 2 mps 759 mmHg 78%
    21:00 +5°C° 0 mm 2 mps 759 mmHg 80%
    22:00 +4°C° 0 mm 2 mps 759 mmHg 82%
    23:00 +4°C° 0 mm 2 mps 759 mmHg 84%

    Day after tomorrow, 20 November, Wednesday

    Time Temperature Precipitation Wind Pressure Humidity
    00:00 +3°C° 0 mm 2 mps 759 mmHg 86%
    01:00 +3°C° 0 mm 2 mps 759 mmHg 86%
    02:00 +3°C° 0 mm 2 mps 760 mmHg 87%
    03:00 +2°C° 0 mm 2 mps 760 mmHg 87%
    04:00 +2°C° 0 mm 2 mps 760 mmHg 87%
    05:00 +1°C° 0 mm 3 mps 760 mmHg 87%
    06:00 0°C° 0 mm 3 mps 760 mmHg 88%
    07:00 0°C° 0 mm 3 mps 760 mmHg 82%
    08:00 0°C° 0 mm 4 mps 760 mmHg 77%
    09:00 0°C° 0 mm 4 mps 760 mmHg 72%
    10:00 +1°C° 0 mm 4 mps 760 mmHg 63%
    11:00 +2°C° 0 mm 5 mps 760 mmHg 54%
    12:00 +5°C° 0 mm 5 mps 761 mmHg 46%
    13:00 +5°C° 0 mm 5 mps 761 mmHg 49%
    14:00 +4°C° 0 mm 6 mps 761 mmHg 52%
    15:00 +5°C° 0 mm 6 mps 761 mmHg 55%
    16:00 +4°C° 0 mm 6 mps 761 mmHg 62%
    17:00 +3°C° 0 mm 6 mps 761 mmHg 70%
    18:00 +3°C° 0 mm 6 mps 761 mmHg 78%
    19:00 +2°C° 0 mm 7 mps 762 mmHg 79%
    20:00 +2°C° 0 mm 7 mps 762 mmHg 79%
    21:00 +1°C° 0 mm 8 mps 763 mmHg 80%
    22:00 0°C° 0 mm 8 mps 763 mmHg 76%
    23:00 -1°C° 0 mm 7 mps 763 mmHg 72%

    21 November, Thursday

    Time Temperature Precipitation Wind Pressure Humidity
    00:00 -1°C° 0 mm 7 mps 763 mmHg 67%
    01:00 -3°C° 0 mm 7 mps 764 mmHg 65%
    02:00 -4°C° 0 mm 7 mps 764 mmHg 63%
    03:00 -6°C° 0 mm 7 mps 765 mmHg 61%
    04:00 -7°C° 0 mm 7 mps 765 mmHg 60%
    05:00 -8°C° 0 mm 7 mps 765 mmHg 59%
    06:00 -9°C° 0 mm 7 mps 765 mmHg 57%
    07:00 -9°C° 0 mm 7 mps 766 mmHg 56%
    08:00 -11°C° 0 mm 8 mps 766 mmHg 55%
    09:00 -11°C° 0 mm 8 mps 766 mmHg 54%
    10:00 -10°C° 0 mm 8 mps 766 mmHg 50%
    11:00 -8°C° 0 mm 8 mps 766 mmHg 46%
    12:00 -8°C° 0 mm 8 mps 766 mmHg 41%
    13:00 -7°C° 0 mm 8 mps 766 mmHg 41%
    14:00 -7°C° 0 mm 8 mps 766 mmHg 40%
    15:00 -6°C° 0 mm 8 mps 766 mmHg 39%
    16:00 -7°C° 0 mm 8 mps 766 mmHg 40%
    17:00 -8°C° 0 mm 8 mps 766 mmHg 40%
    18:00 -9°C° 0 mm 7 mps 766 mmHg 41%
    19:00 -9°C° 0 mm 7 mps 766 mmHg 40%
    20:00 -11°C° 0 mm 7 mps 766 mmHg 39%
    21:00 -11°C° 0 mm 7 mps 767 mmHg 38%
    22:00 -11°C° 0 mm 7 mps 767 mmHg 39%
    23:00 -11°C° 0 mm 7 mps 767 mmHg 40%

    22 November, Friday

    Time Temperature Precipitation Wind Pressure Humidity
    00:00 -12°C° 0 mm 7 mps 767 mmHg 41%
    01:00 -12°C° 0 mm 7 mps 767 mmHg 41%
    02:00 -12°C° 0 mm 7 mps 767 mmHg 41%
    03:00 -12°C° 0 mm 7 mps 767 mmHg 41%
    04:00 -12°C° 0 mm 7 mps 766 mmHg 42%
    05:00 -12°C° 0 mm 7 mps 766 mmHg 44%
    06:00 -13°C° 0 mm 7 mps 766 mmHg 45%
    07:00 -12°C° 0 mm 8 mps 766 mmHg 45%
    08:00 -12°C° 0 mm 8 mps 766 mmHg 45%
    09:00 -12°C° 0 mm 8 mps 766 mmHg 46%
    10:00 -10°C° 0 mm 9 mps 766 mmHg 41%
    11:00 -9°C° 0 mm 9 mps 766 mmHg 37%
    12:00 -6°C° 0 mm 9 mps 766 mmHg 33%
    13:00 -6°C° 0 mm 9 mps 765 mmHg 31%
    14:00 -5°C° 0 mm 9 mps 765 mmHg 29%
    15:00 -4°C° 0 mm 9 mps 765 mmHg 28%
    16:00 -5°C° 0 mm 8 mps 765 mmHg 30%
    17:00 -6°C° 0 mm 8 mps 765 mmHg 32%
    18:00 -7°C° 0 mm 7 mps 765 mmHg 34%
    19:00 -7°C° 0 mm 7 mps 765 mmHg 35%
    20:00 -8°C° 0 mm 7 mps 765 mmHg 37%
    21:00 -8°C° 0 mm 8 mps 765 mmHg 38%
    22:00 -8°C° 0 mm 7 mps 765 mmHg 39%
    23:00 -8°C° 0 mm 7 mps 765 mmHg 41%

    23 November, Saturday

    Time Temperature Precipitation Wind Pressure Humidity
    00:00 -8°C° 0 mm 7 mps 765 mmHg 43%
    01:00 -9°C° 0 mm 7 mps 765 mmHg 45%
    02:00 -9°C° 0 mm 7 mps 764 mmHg 46%
    03:00 -9°C° 0 mm 7 mps 764 mmHg 48%
    04:00 -9°C° 0 mm 7 mps 764 mmHg 49%
    05:00 -9°C° 0 mm 7 mps 764 mmHg 50%
    06:00 -9°C° 0 mm 7 mps 764 mmHg 51%
    07:00 -9°C° 0 mm 7 mps 764 mmHg 53%
    08:00 -9°C° 0 mm 7 mps 764 mmHg 54%
    09:00 -8°C° 0 mm 8 mps 764 mmHg 55%
    10:00 -7°C° 0 mm 8 mps 764 mmHg 54%
    11:00 -6°C° 0 mm 8 mps 764 mmHg 52%
    12:00 -5°C° 0 mm 8 mps 763 mmHg 51%
    13:00 -5°C° 0 mm 8 mps 763 mmHg 51%
    14:00 -4°C° 0 mm 8 mps 763 mmHg 51%
    15:00 -3°C° 0 mm 7 mps 763 mmHg 51%
    16:00 -4°C° 0 mm 7 mps 763 mmHg 53%
    17:00 -5°C° 0 mm 6 mps 763 mmHg 55%
    18:00 -5°C° 0 mm 6 mps 763 mmHg 57%
    19:00 -6°C° 0 mm 6 mps 763 mmHg 58%
    20:00 -6°C° 0 mm 6 mps 763 mmHg 59%
    21:00 -6°C° 0 mm 6 mps 763 mmHg 60%
    22:00 -6°C° 0 mm 6 mps 762 mmHg 61%
    23:00 -6°C° 0 mm 6 mps 762 mmHg 63%
    Show more